CASSIOPE

Last updated on Mon Sep 21 2026 00:03:33 GMT+0000 (Coordinated Universal Time)

1 39265U 13055A 26263.61006862 .00031964 -70648-6 31511-3 0 9996 2 39265 80.9125 310.2536 0268285 99.1462 264.0229 15.31957193682245
UTC large
Height (km)
Speed (km/s)
/
Latitude / Longitude
Inclination (degrees)
Orbital Period (minutes)
Azimuth
Elevation
Range (km)
Doppler Factor

Next 0 passes for location: London (51.5072 / 0.1276)

No passes found over London.
CASSIOPE